• In Uzbekistan
  • List of Countries
  • For 7 days
  • Water Temperature
  • Satellite Maps
  • Weather Map
  • Weather Widgets
  • user-avatar
    Login

    Hourly Weather Ganja

    Today, 25 March, Monday

    Time Temperature Precipitation Wind Pressure Humidity
    00:00 +5°C° 0 mm 4 mps 722 mmHg 65%
    01:00 +5°C° 0 mm 3 mps 722 mmHg 66%
    02:00 +5°C° 0 mm 3 mps 722 mmHg 66%
    03:00 +4°C° 0 mm 3 mps 722 mmHg 67%
    04:00 +4°C° 0 mm 3 mps 722 mmHg 66%
    05:00 +4°C° 0 mm 3 mps 722 mmHg 65%
    06:00 +5°C° 0 mm 2 mps 722 mmHg 64%
    07:00 +5°C° 0 mm 3 mps 722 mmHg 59%
    08:00 +7°C° 0 mm 3 mps 722 mmHg 53%
    09:00 +8°C° 0 mm 3 mps 722 mmHg 48%
    10:00 +9°C° 0 mm 3 mps 722 mmHg 48%
    11:00 +9°C° 0 mm 3 mps 722 mmHg 49%
    12:00 +9°C° 0 mm 3 mps 722 mmHg 49%
    13:00 +8°C° 0.2 mm 4 mps 722 mmHg 55%
    14:00 +8°C° 0.2 mm 5 mps 722 mmHg 60%
    15:00 +8°C° 0.2 mm 5 mps 722 mmHg 65%
    16:00 +7°C° 0.3 mm 5 mps 722 mmHg 67%
    17:00 +7°C° 0.3 mm 5 mps 723 mmHg 69%
    18:00 +6°C° 0.3 mm 5 mps 723 mmHg 70%
    19:00 +6°C° 0.2 mm 5 mps 724 mmHg 71%
    20:00 +6°C° 0.2 mm 5 mps 724 mmHg 71%
    21:00 +5°C° 0.2 mm 5 mps 725 mmHg 72%
    22:00 +5°C° 0.2 mm 4 mps 725 mmHg 73%
    23:00 +5°C° 0.2 mm 4 mps 725 mmHg 74%

    Tomorrow, 26 March, Tuesday

    Time Temperature Precipitation Wind Pressure Humidity
    00:00 +5°C° 0.2 mm 3 mps 725 mmHg 75%
    01:00 +4°C° 0.3 mm 3 mps 725 mmHg 77%
    02:00 +4°C° 0.3 mm 3 mps 725 mmHg 78%
    03:00 +4°C° 0.3 mm 3 mps 725 mmHg 79%
    04:00 +5°C° 0.1 mm 2 mps 725 mmHg 80%
    05:00 +4°C° 0.1 mm 2 mps 725 mmHg 82%
    06:00 +4°C° 0.1 mm 2 mps 725 mmHg 83%
    07:00 +5°C° 0.1 mm 2 mps 725 mmHg 80%
    08:00 +5°C° 0.1 mm 2 mps 725 mmHg 76%
    09:00 +6°C° 0.1 mm 2 mps 725 mmHg 73%
    10:00 +7°C° 0 mm 3 mps 725 mmHg 70%
    11:00 +8°C° 0 mm 3 mps 724 mmHg 66%
    12:00 +8°C° 0 mm 4 mps 724 mmHg 62%
    13:00 +10°C° 0 mm 4 mps 724 mmHg 61%
    14:00 +10°C° 0 mm 4 mps 723 mmHg 59%
    15:00 +11°C° 0 mm 4 mps 723 mmHg 58%
    16:00 +10°C° 0 mm 3 mps 723 mmHg 61%
    17:00 +9°C° 0 mm 3 mps 723 mmHg 64%
    18:00 +9°C° 0 mm 3 mps 723 mmHg 67%
    19:00 +8°C° 0 mm 2 mps 723 mmHg 70%
    20:00 +9°C° 0 mm 1 mps 723 mmHg 73%
    21:00 +8°C° 0 mm 1 mps 724 mmHg 75%
    22:00 +8°C° 0 mm 1 mps 723 mmHg 77%
    23:00 +7°C° 0 mm 0 mps 723 mmHg 78%

    Day after tomorrow, 27 March, Wednesday

    Time Temperature Precipitation Wind Pressure Humidity
    00:00 +6°C° 0 mm 0 mps 723 mmHg 79%
    01:00 +6°C° 0 mm 0 mps 722 mmHg 80%
    02:00 +7°C° 0 mm 1 mps 722 mmHg 80%
    03:00 +7°C° 0 mm 1 mps 722 mmHg 80%
    04:00 +7°C° 0 mm 1 mps 722 mmHg 78%
    05:00 +6°C° 0 mm 2 mps 722 mmHg 77%
    06:00 +6°C° 0 mm 2 mps 722 mmHg 75%
    07:00 +7°C° 0 mm 3 mps 722 mmHg 68%
    08:00 +9°C° 0 mm 3 mps 722 mmHg 61%
    09:00 +11°C° 0 mm 3 mps 722 mmHg 54%
    10:00 +12°C° 0 mm 3 mps 721 mmHg 50%
    11:00 +14°C° 0 mm 4 mps 721 mmHg 46%
    12:00 +15°C° 0 mm 4 mps 721 mmHg 42%
    13:00 +17°C° 0 mm 4 mps 721 mmHg 40%
    14:00 +18°C° 0 mm 4 mps 721 mmHg 38%
    15:00 +19°C° 0 mm 4 mps 721 mmHg 37%
    16:00 +18°C° 0 mm 3 mps 721 mmHg 40%
    17:00 +17°C° 0 mm 2 mps 721 mmHg 43%
    18:00 +16°C° 0 mm 2 mps 722 mmHg 47%
    19:00 +16°C° 0 mm 2 mps 722 mmHg 48%
    20:00 +15°C° 0 mm 2 mps 723 mmHg 49%
    21:00 +13°C° 0 mm 3 mps 724 mmHg 51%
    22:00 +13°C° 0 mm 2 mps 724 mmHg 52%
    23:00 +12°C° 0 mm 2 mps 724 mmHg 54%

    28 March, Thursday

    Time Temperature Precipitation Wind Pressure Humidity
    00:00 +12°C° 0 mm 2 mps 724 mmHg 55%
    01:00 +10°C° 0 mm 2 mps 724 mmHg 57%
    02:00 +10°C° 0 mm 2 mps 724 mmHg 59%
    03:00 +9°C° 0 mm 2 mps 724 mmHg 61%
    04:00 +9°C° 0 mm 2 mps 725 mmHg 62%
    05:00 +9°C° 0 mm 2 mps 725 mmHg 63%
    06:00 +8°C° 0 mm 2 mps 725 mmHg 65%
    07:00 +9°C° 0 mm 2 mps 725 mmHg 62%
    08:00 +10°C° 0 mm 3 mps 726 mmHg 58%
    09:00 +12°C° 0 mm 3 mps 726 mmHg 55%
    10:00 +12°C° 0.1 mm 3 mps 726 mmHg 53%
    11:00 +13°C° 0.1 mm 3 mps 725 mmHg 51%
    12:00 +14°C° 0.1 mm 2 mps 725 mmHg 49%
    13:00 +14°C° 0.2 mm 2 mps 725 mmHg 49%
    14:00 +14°C° 0.2 mm 2 mps 725 mmHg 48%
    15:00 +14°C° 0.2 mm 1 mps 724 mmHg 48%
    16:00 +14°C° 0.2 mm 1 mps 725 mmHg 50%
    17:00 +13°C° 0.2 mm 1 mps 725 mmHg 53%
    18:00 +13°C° 0.2 mm 1 mps 725 mmHg 55%
    19:00 +12°C° 0.2 mm 1 mps 726 mmHg 58%
    20:00 +10°C° 0.2 mm 2 mps 726 mmHg 61%
    21:00 +10°C° 0.2 mm 2 mps 727 mmHg 64%
    22:00 +9°C° 0.5 mm 2 mps 726 mmHg 69%
    23:00 +8°C° 0.5 mm 2 mps 726 mmHg 75%

    29 March, Friday

    Time Temperature Precipitation Wind Pressure Humidity
    00:00 +9°C° 0.5 mm 1 mps 726 mmHg 80%
    01:00 +8°C° 0.2 mm 1 mps 726 mmHg 81%
    02:00 +8°C° 0.2 mm 1 mps 726 mmHg 82%
    03:00 +8°C° 0.2 mm 1 mps 726 mmHg 83%
    04:00 +8°C° 0 mm 1 mps 726 mmHg 82%
    05:00 +7°C° 0 mm 1 mps 726 mmHg 81%
    06:00 +7°C° 0 mm 1 mps 727 mmHg 80%
    07:00 +8°C° 0 mm 1 mps 726 mmHg 73%
    08:00 +8°C° 0 mm 2 mps 726 mmHg 67%
    09:00 +9°C° 0 mm 2 mps 726 mmHg 60%
    10:00 +10°C° 0 mm 2 mps 726 mmHg 57%
    11:00 +10°C° 0 mm 3 mps 725 mmHg 55%
    12:00 +11°C° 0 mm 3 mps 725 mmHg 52%
    13:00 +11°C° 0 mm 3 mps 724 mmHg 56%
    14:00 +11°C° 0 mm 4 mps 724 mmHg 59%
    15:00 +11°C° 0 mm 4 mps 723 mmHg 63%
    16:00 +11°C° 0.1 mm 4 mps 724 mmHg 68%
    17:00 +10°C° 0.1 mm 4 mps 724 mmHg 74%
    18:00 +10°C° 0.1 mm 4 mps 724 mmHg 79%
    19:00 +8°C° 0.2 mm 4 mps 724 mmHg 81%
    20:00 +8°C° 0.2 mm 4 mps 725 mmHg 83%
    21:00 +8°C° 0.2 mm 4 mps 725 mmHg 85%
    22:00 +8°C° 0.4 mm 4 mps 725 mmHg 85%
    23:00 +7°C° 0.4 mm 4 mps 724 mmHg 86%

    30 March, Saturday

    Time Temperature Precipitation Wind Pressure Humidity
    00:00 +7°C° 0.4 mm 4 mps 724 mmHg 86%
    01:00 +7°C° 0.2 mm 4 mps 724 mmHg 86%
    02:00 +6°C° 0.2 mm 4 mps 724 mmHg 86%
    03:00 +6°C° 0.2 mm 4 mps 723 mmHg 87%
    04:00 +7°C° 0.2 mm 3 mps 723 mmHg 87%
    05:00 +7°C° 0.2 mm 3 mps 724 mmHg 88%
    06:00 +7°C° 0.2 mm 3 mps 724 mmHg 88%
    07:00 +7°C° 0.1 mm 3 mps 724 mmHg 87%
    08:00 +7°C° 0.1 mm 3 mps 724 mmHg 85%
    09:00 +8°C° 0.1 mm 3 mps 723 mmHg 83%
    10:00 +8°C° 0.1 mm 3 mps 723 mmHg 82%
    11:00 +8°C° 0.1 mm 3 mps 723 mmHg 81%
    12:00 +8°C° 0.1 mm 3 mps 722 mmHg 80%
    13:00 +8°C° 0.1 mm 3 mps 722 mmHg 80%
    14:00 +8°C° 0.1 mm 2 mps 722 mmHg 80%
    15:00 +8°C° 0.1 mm 2 mps 721 mmHg 81%
    16:00 +9°C° 0.2 mm 1 mps 722 mmHg 81%
    17:00 +9°C° 0.2 mm 1 mps 722 mmHg 81%
    18:00 +9°C° 0.2 mm 1 mps 722 mmHg 81%
    19:00 +9°C° 0.2 mm 1 mps 722 mmHg 84%
    20:00 +8°C° 0.2 mm 1 mps 723 mmHg 87%
    21:00 +8°C° 0.2 mm 1 mps 723 mmHg 90%
    22:00 +8°C° 0.1 mm 1 mps 723 mmHg 92%
    23:00 +7°C° 0.1 mm 2 mps 723 mmHg 93%
    Show more